RYR818 EIKY-EIDW

Flight info

Callsign RYR818
Flight time N/A
Altitude 23000
Route KER3D KER DCT SUTEX SUTEX4L
Aircraft B736/M-SDE2E3FGHIRWXY/LB1

Departure

Time 2026-04-23 16:44
Airport Kerry Airport (EIKY)

Arrival

Time N/A
Airport Dublin Airport (EIDW)
Time Latitude Longitude Altitude Speed Heading
2026-04-23 16:26 52.18124 -9.53587 97 ft 0 kts 347°
2026-04-23 16:37 52.18113 -9.53581 93 ft 2 kts 328°
2026-04-23 16:37 52.18104 -9.53564 92 ft 2 kts 260°
2026-04-23 16:37 52.18110 -9.53546 92 ft 1 kts 213°
2026-04-23 16:37 52.18114 -9.53542 93 ft 0 kts 206°
2026-04-23 16:38 52.18115 -9.53541 93 ft 0 kts 205°
2026-04-23 16:39 52.18110 -9.53544 93 ft 2 kts 201°
2026-04-23 16:39 52.18108 -9.53545 90 ft 0 kts 201°
2026-04-23 16:40 52.18093 -9.53557 91 ft 5 kts 205°
2026-04-23 16:41 52.18046 -9.53589 92 ft 9 kts 201°
2026-04-23 16:41 52.17987 -9.53612 90 ft 9 kts 173°
2026-04-23 16:41 52.17930 -9.53582 91 ft 9 kts 159°
2026-04-23 16:41 52.17902 -9.53566 90 ft 0 kts 162°
2026-04-23 16:42 52.17897 -9.53564 90 ft 3 kts 162°
2026-04-23 16:42 52.17867 -9.53556 91 ft 7 kts 192°
2026-04-23 16:43 52.17802 -9.53665 91 ft 17 kts 236°
2026-04-23 16:43 52.17807 -9.53744 94 ft 2 kts 26°
2026-04-23 16:43 52.17873 -9.53438 93 ft 78 kts 72°
2026-04-23 16:43 52.18163 -9.52097 225 ft 162 kts 76°
2026-04-23 16:44 52.18554 -9.50138 1278 ft 183 kts 79°
2026-04-23 16:44 52.18907 -9.48181 2959 ft 185 kts 81°
2026-04-23 16:44 52.19314 -9.46168 3725 ft 194 kts 79°
2026-04-23 16:44 52.19782 -9.43947 3995 ft 218 kts 78°
2026-04-23 16:45 52.20088 -9.42507 3968 ft 221 kts 78°